Weather History for Fountain Dale, PA

Change the Weather History Date:

Sunday, October 13, 2013

  Actual Average (KHGR) Record (KHGR)
Temperature  
Mean Temperature 59 °F -  
Max Temperature 61 °F 62 °F 79 °F (2001)
Min Temperature 57 °F 44 °F 32 °F (2012)
Degree Days  
Heating Degree Days 6    
Growing Degree Days 9 (Base 50)    
Moisture  
Dew Point 54 °F    
Average Humidity 84    
Maximum Humidity 88    
Minimum Humidity 72    
Precipitation  
Precipitation 0.34 in - - ()
Sea Level Pressure  
Sea Level Pressure 30.27 in    
Wind  
Wind Speed 4 mph (NE)    
Max Wind Speed 7 mph    
Max Gust Speed -    
Visibility 5 miles    
Events      
Averages and records for this station are not official NWS values.
T = Trace of Precipitation, MM = Missing Value Source: NWS Daily Summary

Daily Weather History Graph

Daily Weather History Graph

Search for Another Location

Airport:

Trip Planner

Search our weather history database for the weather conditions in past years. The results will help you decide how hot, cold, wet, or windy it might be!

Date:

Astronomy

Oct. 13, 2013 Rise Set
Actual Time 7:18 AM EDT 6:33 PM EDT
Civil Twilight 6:50 AM EDT 7:00 PM EDT
Nautical Twilight 6:19 AM EDT 7:31 PM EDT
Astronomical Twilight 5:48 AM EDT 8:02 PM EDT
Moon 3:22 PM EDT (10/13) 1:26 AM EDT (10/13)
Length of Visible Light 12h 09m
Length of Day
11h 14m
Waxing Gibbous, 69% of the Moon is Illuminated
Oct 13
Waxing Gibbous
Oct 18
Full
Oct 26
Last Quarter
Nov 3
New
Nov 10
First Quarter

Hourly Weather History & Observations

Time (EDT) Temp. Dew Point Humidity Pressure Visibility Wind Dir Wind Speed Gust Speed Precip Events Conditions
12:36 AM 60.8 °F 51.8 °F 72% 30.21 in 2.0 mi NE 6.9 mph - 0.03 in   Haze
12:53 AM 59.0 °F 52.0 °F 78% 30.20 in 4.0 mi NE 4.6 mph - 0.05 in   Haze
1:29 AM 57.2 °F 53.6 °F 88% 30.21 in 2.5 mi Variable 4.6 mph - 0.07 in   Haze
1:38 AM 57.2 °F 53.6 °F 88% 30.21 in 6.0 mi ENE 6.9 mph - 0.08 in   Haze
1:53 AM 57.9 °F 53.1 °F 84% 30.20 in 10.0 mi Variable 5.8 mph - 0.08 in   Overcast
2:17 AM 57.2 °F 53.6 °F 88% 30.22 in 9.0 mi Variable 4.6 mph - N/A   Overcast
2:53 AM 59.0 °F 54.0 °F 83% 30.20 in 9.0 mi Calm Calm - N/A   Overcast
3:53 AM 60.1 °F 54.0 °F 80% 30.19 in 5.0 mi Variable 4.6 mph - 0.01 in   Haze
4:53 AM 59.0 °F 55.0 °F 87% 30.20 in 2.0 mi Variable 6.9 mph - 0.05 in   Overcast
5:53 AM 59.0 °F 54.0 °F 83% 30.22 in 3.0 mi Variable 3.5 mph - 0.06 in   Haze
6:53 AM 59.0 °F 54.0 °F 83% 30.24 in 4.0 mi Variable 4.6 mph - 0.02 in   Haze
7:19 AM 57.2 °F 53.6 °F 88% 30.26 in 4.0 mi Variable 5.8 mph - N/A   Overcast
7:53 AM 57.9 °F 53.1 °F 84% 30.26 in 4.0 mi Calm Calm - N/A   Haze
8:24 AM 57.2 °F 53.6 °F 88% 30.28 in 2.5 mi Variable 3.5 mph - 0.01 in   Haze
9:53 AM 59.0 °F 52.0 °F 78% 30.29 in 10.0 mi NE 5.8 mph - N/A   Overcast
10:22 AM 59.0 °F 51.8 °F 77% 30.31 in 1.8 mi Calm Calm - N/A   Haze
10:39 AM 57.2 °F 51.8 °F 82% 30.32 in 4.0 mi NNE 6.9 mph - N/A   Haze
10:53 AM 57.9 °F 52.0 °F 81% 30.31 in 9.0 mi NNE 4.6 mph - 0.01 in   Overcast
11:53 AM 57.9 °F 53.1 °F 84% 30.31 in 4.0 mi Variable 5.8 mph - 0.01 in   Haze
12:17 PM 57.2 °F 53.6 °F 88% 30.32 in 1.8 mi Variable 5.8 mph - N/A   Haze
12:29 PM 57.2 °F 53.6 °F 88% 30.32 in 3.0 mi ENE 4.6 mph - N/A   Overcast
12:50 PM 57.0 °F 53.1 °F 87% 30.31 in 1.8 mi NE 4.6 mph - 0.01 in   Overcast
1:21 PM 57.2 °F 53.6 °F 88% 30.31 in 4.0 mi NE 4.6 mph - 0.01 in   Haze
1:53 PM 57.9 °F 53.1 °F 84% 30.30 in 4.0 mi NNE 3.5 mph - 0.01 in   Haze
2:53 PM 59.0 °F 54.0 °F 83% 30.29 in 4.0 mi NNE 4.6 mph - N/A   Haze
3:11 PM 59.0 °F 53.6 °F 82% 30.30 in 1.8 mi Calm Calm - N/A   Haze
3:53 PM 59.0 °F 54.0 °F 83% 30.29 in 2.0 mi Calm Calm - 0.01 in   Haze
4:02 PM 60.8 °F 55.4 °F 82% 30.29 in 1.5 mi NNE 3.5 mph - 0.01 in   Haze
4:53 PM 61.0 °F 55.0 °F 81% 30.28 in 9.0 mi Calm Calm - 0.02 in   Overcast
5:53 PM 61.0 °F 55.9 °F 83% 30.29 in 7.0 mi Calm Calm - N/A   Overcast
6:11 PM 60.8 °F 55.4 °F 82% 30.29 in 6.0 mi Calm Calm - N/A   Haze
6:53 PM 60.1 °F 55.9 °F 86% 30.30 in 7.0 mi Calm Calm - N/A   Overcast
7:53 PM 59.0 °F 55.0 °F 87% 30.30 in 7.0 mi Calm Calm - N/A   Overcast
8:53 PM 59.0 °F 55.0 °F 87% 30.31 in 7.0 mi Calm Calm - N/A   Overcast
9:53 PM 59.0 °F 54.0 °F 83% 30.32 in 10.0 mi Calm Calm - N/A   Overcast
10:53 PM 57.9 °F 53.1 °F 84% 30.33 in 10.0 mi Calm Calm - N/A   Overcast
11:53 PM 57.0 °F 52.0 °F 83% 30.33 in 10.0 mi Calm Calm - N/A   Overcast